sat.trackr.live / text

‹ back to catalog

ASIASAT 6

NORAD 40141 · 2014-052A

PAYLOAD ACTIVE UNKNOWN

§ Identity

Operator
Country
AC
Launch date
2014-09-07
Launch site
AFETR
Launch vehicle
Mass (kg)
RCS (m²)
56.43

Purposes: comms

External: N2YO · Heavens-Above · Gunter

§ Orbital elements

Epoch: 2026-05-24T23:10:45.984864Z

Period
1,436.09 min
Inclination
0.0499°
Eccentricity
0.0000804
Mean motion
1.00272516 rev/d
Perigee alt
35,783.0 km
Apogee alt
35,789.8 km
Semi-major
42,164.5 km
B*
0.0000e+0
RAAN
97.2449°
Arg perigee
315.8910°
Mean anomaly
297.0328°
Rev number
4,284

§ Raw data

ASIASAT 61 40141U 14052A   26144.96581001 -.00000365  00000+0  00000+0 0  99922 40141   0.0499  97.2449 0000804 315.8910 297.0328  1.00272516 42841

JSON: /api/v1/satellites/40141 · /tle

For live sub-satellite position, see the globe view (requires WebGL).

§ Visibility from observer

Set your observer location to see the next 7 days of passes ≥ 10°. The values pass through the URL so the page stays shareable.

No JS? Fill the form by hand. The geolocation button needs JavaScript.